Location: Umburanas
(4.5000°S, 37.9667°W)
Time: 20:46:55
(UTC+00:00)

NOAA 12 - Pass Details

Date: 19 November 2019
Orbit: 795 x 816 km, 98.5° (Epoch: 14 December)

Event Time Altitude Azimuth Distance (km) Brightness Sun altitude
Rises 20:47:59 0° 166° (SSE) 3,333 7.4 -5.7°
Reaches altitude 10° 20:50:20 10° 165° (SSE) 2,401 6.7 -6.2°
Maximum altitude 20:55:39 81° 78° (ENE) 827 4.1 -7.5°
Drops below altitude 10° 21:00:57 10° 351° (N) 2,395 6.5 -8.7°
Sets 21:03:17 0° 350° (N) 3,324 7.2 -9.3°
